Terug naar catalogus

THORAD AGENA D DEB

ActiefLEO
NORAD 13518·DEBRIS·🇺🇸 United States

Gelanceerd Apr 8, 1970 vanaf Vandenberg Space Force Base

Loading…

Volgende Passages (komende 24 uur)

TLE

VersSource: Space-Track

Epoch: Sep 14, 2026, 10:00 UTC

1 13518U 70025NR  26257.41732317  .00000980  00000-0  84937-3 0  9993
2 13518 100.0572  59.7437 0003264 244.8517 143.7214 13.89086433262744

Volg THORAD AGENA D DEB in realtime met AllMySat

Download on the App Store